Simultaneous Nadir Overpasses (SNOs) Predictions

Prediction of SNOs between GOES-17 and LANDSAT-8 Satellite Orbit:

Table of predicted SNOs for the next 14.0 days since TLE Epoch: 12/17/2023
Index Date Time (GOES-17) GOES-17 Lat,Lon LANDSAT-8 Lat,Lon Distance(km) Time Diff (sec)
1 12/17/2023 17:10:13 0.02,-104.68 0.06,-104.76 10.13 80
2 12/19/2023 17:00:43 0.03,-104.68 -0.60,-101.82 326.58 80
3 12/20/2023 05:22:07 -0.03,-104.68 -0.52,-107.00 263.94 80
4 12/22/2023 05:07:16 -0.03,-104.69 0.10,-104.05 72.64 80
5 12/24/2023 04:55:05 -0.01,-104.69 0.73,-101.09 408.86 80
6 12/24/2023 17:16:21 0.00,-104.69 0.34,-106.25 177.58 80
7 12/26/2023 17:06:50 0.01,-104.70 -0.31,-103.30 159.06 80
8 12/27/2023 05:28:14 -0.01,-104.70 -0.81,-108.49 430.80 80
9 12/28/2023 16:54:38 0.02,-104.70 -0.91,-100.34 496.20 80
10 12/29/2023 05:16:02 -0.02,-104.71 -0.20,-105.53 93.60 80
